Torna al catalogo

STARLINK-4181

AttivoComunicazioniVLEO
NORAD 52882·PAYLOAD·🇺🇸 United States

Lanciato Jun 17, 2022 da Cape Canaveral Space Force Station

Loading…

Prossimi Passaggi (prossime 24 ore)

TLE

AggiornatoSource: CelesTrak SupGP

Epoca: Sep 14, 2026, 22:18 UTC

1 52882C 22062BE  26257.92965278  .00026135  00000+0  97339-3 0  2574
2 52882  53.1535 237.9319 0002093  60.9619   2.0104 15.26916820    16

Traccia STARLINK-4181 in tempo reale con AllMySat

Download on the App Store